Location: Bergnershof
(48.9468°N, 10.9431°E)
Time: 05:00:26
(UTC+00:00)

Cosmos 2278 Rocket - Pass Details

Date: 03 March 2021
Orbit: 841 x 845 km, 71.0° (Epoch: 11 April)

Event Time Altitude Azimuth Distance (km) Brightness Sun altitude
Rises 20:23:54 0° 329° (NNW) 3,415 6.2 -32.6°
Reaches altitude 10° 20:26:23 10° 325° (NW) 2,476 5.4 -32.9°
Enters shadow 20:30:48 48° 291° (WNW) 1,097 3.0 -33.5°
